Riverside Municipal Airport
KRAL : now visible

Airfield :











YOU CAN JOIN US ON...

 
LOGIN :

Register | Disclaimer

   EN    FR    IT 

 









Legend :    VFR   Marginal VFR   IFR   Intensive IFR   Very Intensive IFR
Visi :
Ceiling :
>= 8 km
>= 3000ft
5 to 8 km
1000 to 3000 ft
1500m to 5 km
500 to 1000 ft
800 to 1500m
200 to 500 ft
< 800m
< 200 ft
Symbols :   Thunderstorms  Fog  Heavy snow  Heavy precipitations  Wind > 20 kt






- Airport Elevation : 819 ft


KRAL - Riverside Municipal

CURRENT METAR :
  • 162353Z 27014G24KT 10SM CLR 28/13 A2969 RMK AO2 SLP038 T02830133 10311 20261 56010

EXPIRED METARs :
  • 162253Z 26014G22KT 10SM CLR 30/12 A2969 RMK AO2 SLP039 T03000117
  • 162153Z 27013G19KT 10SM CLR 31/13 A2971 RMK AO2 SLP045 T03060128
  • 162053Z 29009G17KT 260V340 10SM CLR 30/14 A2972 RMK AO2 SLP048 T03000139 58012
  • 161953Z VRB05KT 10SM CLR 29/14 A2974 RMK AO2 SLP052 T02940139

TAF N/A
KZLA FIR / North America



MET'MAP, your aeronautical weather chart ! - Copyright ORBIFLY December 2007 - Disclaimer

ORBIFLY MET'MAP TEAM :

Programming & Development : Alexandra Zaïnal
Original concept : Baudouin d'Aumeries
Technical & hardware support : Manuel Goepfert
Assistance : Marc-Olivier Méhu




SOURCES & CREDITS :

   NOAA       Earth
Advisory